Terminal Aerodrome Forecast
Issued by NWS Caribou, ME

Home | Current Version | Previous Version | Text Only | Print | Product List | Glossary On
Versions: 1 2 3 4 5 6 7 8 9 10 11 12 13 14 15 16 17 18 19
000
FTUS41 KCAR 302100 AAB
TAFBGR
TAF AMD
KBGR 302100Z 3021/3118 08004KT 1/2SM SN SCT002 OVC007
     FM310900 34016G35KT 1 1/2SM -SN BLSN OVC015=

USA.gov is the U.S. government's official web portal to all federal, state and local government web resources and services.